Probability
0 0 0 0 0 0 0 0 0 0 0 0 0 0 0 0 0 0 1 1 1 0 0 0 0 0 0 0 0 0 0 0 0 0 0 0 0 0 0 0 0 0 0 0
0 0 0 0 0 0 0 0 0 0 0 0 0 0 0 0 0 0 0 0 0 0 0 0 0 0 0 0 0 0 0 0 0 0 0 0 0 0 0 0 0 0 0 0
0 0 0 0 0 0 0 0 0 0 0 0 0 0 0 0 0 0 0 0 0 0 0 0 0 0 0 0 0 0 0 0 0 0 0 0 0 0 0 0 0 0 0 0
0 0 0 0 0 0 0 0 0 0 0 0 0 0 0 0 0 0 0 0 0 0 0 0 0 0 0 0 0 0 0 0 0 0 0 0 0 0 0 0 0 0 0 0
0 0 0 0 0 0 0 0 0 0 0 0 0 0 0 0 0 0 0 0 0 0 0 0 0 0 0 0 0 0 0 0 0 0 0 0 0 0 0 0 0 0 0 0
0 0 0 0 0 0 0 0 0 0 0 0 0 0 0 0 0 0 0 0 0 0 0 0 0 0 0 0 0 0 0 0 0 0 0 0 0 0 0 0 0 0 0 0
0 0 0 0 0 0 0 0 0 0 0 0 0 0 0 0 0 0 0 0 0 0 0 0 0 0 0 0 0 0 0 0 0 0 0 0 0 0 0 0 0 0 0 0
0 0 0 0 0 0 0 0 0 0 0 0 0 0 0 0 0 0 0 0 0 0 0 0 0 0 0 0 0 0 0 0 0 0 0 0 0 0 0 0 0 0 0 0
0 0 0 0 0 0 0 0 0 0 0 0 0 0 0 0 0 0 0 0 0 0 0 0 0 0 0 0 0 0 0 0 0 0 0 0 0 0 0 0 0 0 0 0
0 0 0 0 0 0 0 0 0 0 0 0 0 0 0 0 0 0 0 0 0 0 0 0 0 0 0 0 0 0 0 0 0 0 0 0 0 0 0 0 0 0 0 0
0 0 0 0 0 0 0 0 0 0 0 0 0 0 0 0 0 0 0 0 0 0 0 0 0 0 0 0 0 0 0 0 0 0 0 0 0 0 0 0 0 0 0 0
0 0 0 0 0 0 0 0 0 0 0 0 0 0 0 0 0 0 0 0 0 0 0 0 0 0 0 0 0 0 0 0 0 0 0 0 0 0 0 0 0 0 0 0
0 0 0 0 0 0 0 0 0 0 0 0 0 0 0 0 0 0 0 0 0 0 0 0 0 0 0 0 0 0 0 0 0 0 0 0 0 0 0 0 0 0 0 0
0 0 0 0 0 0 0 0 0 0 0 0 0 0 0 0 0 0 0 0 0 0 0 0 0 0 0 0 0 0 0 0 0 0 0 0 0 0 0 0 0 0 0 0
0 0 0 0 0 0 0 0 0 0 0 0 0 0 0 0 0 0 0 0 0 0 0 0 0 0 0 0 0 0 0 0 0 0 0 0 0 0 0 0 0 0 0 0
0 0 0 0 0 0 0 0 0 0 0 0 0 0 0 0 0 0 0 0 0 0 0 0 0 0 0 0 0 0 0 0 0 0 0 0 0 0 0 0 0 0 0 0
0 0 0 0 0 0 0 0 0 0 0 0 0 0 0 0 0 0 0 0 0 0 0 0 0 0 0 0 0 0 0 0 0 0 0 0 0 0 0 0 0 0 0 0
0 0 0 0 0 0 0 0 0 0 0 0 0 0 0 0 0 0 0 0 0 0 0 0 0 0 0 0 0 0 0 0 0 0 0 0 0 0 0 0 0 0 0 0
0 0 0 0 0 0 0 0 0 0 0 0 0 0 0 0 0 0 0 0 0 0 0 0 0 0 0 0 0 0 0 0 0 0 0 0 0 0 0 0 0 0 0 0
0 0 0 0 0 0 0 0 0 0 0 0 0 0 0 0 0 0 0 0 0 0 0 0 0 0 0 0 0 0 0 0 0 0 0 0 0 0 0 0 0 0 0 0
0 0 0 0 0 0 0 0 0 0 0 0 0 0 0 0 0 0 0 0 0 0 0 0 0 0 0 0 0 0 0 0 0 0 0 0 0 0 0 0 0 0 0 0
0 0 0 0 0 0 0 0 0 0 0 0 0 0 0 0 0 0 0 0 0 0 0 0 0 0 0 0 0 0 0 0 0 0 0 0 0 0 0 0 0 0 0 0
0 0 0 0 0 0 0 0 0 0 0 0 0 0 0 0 0 0 0 0 0 0 0 0 0 0 0 0 0 0 0 0 0 0 0 0 0 0 0 0 0 0 0 0
0 0 0 0 0 0 0 0 0 0 0 0 0 0 0 0 0 0 0 0 0 0 0 0 0 0 0 0 0 0 0 0 0 0 0 0 0 0 0 0 0 0 0 0
0 0 0 0 0 0 0 0 0 0 0 0 0 0 0 0 0 0 0 0 0 0 0 0 0 0 0 0 0 0 0 0 0 0 0 0 0 0 0 0 0 0 0 0
0 0 0 0 0 0 0 0 0 0 0 0 0 0 0 0 0 0 0 0 0 0 0 0 0 0 0 0 0 0 0 0 0 0 0 0 0 0 0 0 0 0 0 0
Wind_Speed
4 2 2 3 4 6 5 6 6 3 2 3 5 5 3 3 4 4 5 5 6 5 4 4 4 5 4 5 6 6 6 5 4 3 3 2 2 2 2 2 2 2 2 2
2 2 2 3 5 6 6 5 4 2 0 3 4 6 4 4 5 4 5 5 6 5 5 5 5 5 4 5 5 6 5 5 4 3 2 2 3 2 2 2 2 1 1 1
1 1 2 3 3 5 4 3 2 2 3 4 3 5 4 4 4 4 3 4 5 6 6 6 5 5 4 4 5 5 5 5 5 4 3 3 3 1 1 1 1 1 1 1
1 1 3 3 2 3 3 3 4 3 2 2 2 3 4 5 4 4 4 4 4 5 6 6 6 6 5 4 4 5 5 5 4 4 3 4 3 2 2 2 2 2 1 1
0 0 2 2 2 3 3 5 5 4 3 2 2 2 5 4 4 5 4 4 4 4 5 6 6 5 5 5 4 4 4 4 4 4 4 3 2 2 1 2 2 2 2 1
1 1 1 1 2 3 4 4 3 2 1 2 4 3 5 3 5 5 5 5 5 5 5 5 5 6 5 5 5 5 4 3 3 4 3 3 2 2 2 2 2 1 1 2
2 3 2 1 2 1 3 2 2 2 1 4 1 2 5 1 2 4 5 5 5 5 5 5 5 6 6 6 5 5 5 4 4 4 3 3 3 2 2 2 2 1 1 1
1 2 3 1 1 1 3 1 1 1 3 2 1 4 3 3 4 4 4 5 5 5 5 5 5 5 6 6 5 5 5 4 4 4 3 3 2 1 1 1 1 1 1 1
2 1 2 1 1 2 2 1 0 1 4 3 4 4 2 2 3 2 3 4 5 5 5 6 5 5 6 6 5 5 4 4 3 3 3 2 2 2 2 1 1 1 1 1
3 2 1 2 2 3 2 2 1 1 2 4 4 3 3 5 5 4 4 4 5 5 5 5 5 5 5 5 4 4 4 4 3 3 2 2 2 2 2 1 2 2 1 1
2 1 1 2 4 3 2 2 2 2 2 2 3 3 1 3 5 5 4 5 6 6 6 5 5 5 5 5 5 4 4 4 3 2 2 2 1 1 1 1 2 2 1 2
1 1 3 3 2 2 1 2 2 1 3 3 3 5 1 3 4 4 4 4 5 6 6 6 6 6 5 5 4 4 3 3 3 2 2 2 1 1 1 2 2 1 2 2
1 2 2 1 0 1 3 3 3 2 1 3 3 5 1 2 2 3 3 4 4 5 6 5 6 6 5 5 5 4 4 3 3 2 2 2 1 1 2 2 1 2 2 2
2 3 4 4 2 1 4 5 5 4 4 5 7 6 3 2 2 2 3 4 4 5 6 6 5 5 5 5 5 4 4 4 3 3 2 2 2 2 2 1 1 2 2 2
2 4 5 7 7 5 6 7 7 9 9 7 6 6 5 2 2 3 3 3 4 5 5 5 5 5 5 5 4 4 4 3 3 3 2 2 1 1 2 2 2 2 2 3
3 4 4 6 6 6 9 10 10 11 11 12 11 12 5 1 1 1 2 3 3 4 4 5 5 5 5 4 4 4 3 3 3 3 2 2 1 1 2 2 2 2 2 3
4 3 2 4 3 4 9 9 12 8 8 8 10 8 2 2 1 1 2 3 3 3 3 4 4 4 4 4 4 4 4 3 3 2 2 2 2 2 2 2 2 3 3 3
4 3 2 3 3 8 6 0 3 6 7 8 7 5 2 1 0 1 1 2 2 2 3 3 3 3 3 3 3 3 3 3 3 3 2 2 2 2 2 2 3 3 3 3
4 4 3 2 5 9 4 2 2 3 5 4 5 4 2 1 1 2 1 1 2 2 2 2 3 3 3 3 3 3 3 3 3 3 3 3 2 2 2 3 4 3 3 3
2 3 3 4 5 7 2 2 2 1 4 1 1 2 1 2 0 2 0 1 1 2 2 2 2 3 3 3 3 3 3 3 3 3 3 2 2 3 3 4 4 3 3 4
3 4 6 7 6 8 1 3 3 2 3 1 1 1 1 2 2 1 2 2 2 2 2 2 2 2 2 3 3 3 3 3 3 3 2 2 3 3 4 3 3 3 3 3
8 6 7 5 7 9 3 4 4 2 0 1 1 1 1 1 0 1 1 1 2 2 2 2 2 2 2 3 4 3 4 3 3 2 3 3 3 3 3 3 3 3 3 3
6 6 4 7 7 2 4 3 2 1 1 1 1 2 1 2 2 2 2 2 2 2 3 2 3 3 2 3 4 4 4 3 3 3 3 3 3 3 3 3 4 3 3 3
4 1 3 5 5 3 3 4 3 3 3 2 2 2 2 3 3 3 2 2 2 2 3 3 3 3 4 3 4 4 3 3 3 3 3 3 3 3 3 3 3 3 3 4
3 2 4 7 7 6 5 4 4 3 3 3 3 3 4 4 4 4 3 3 3 2 2 3 3 4 4 4 4 3 3 3 3 3 3 3 3 3 3 3 3 4 5 5
6 6 7 8 5 5 5 2 2 3 4 4 4 5 4 4 5 4 4 4 3 3 3 3 4 4 4 3 4 3 3 4 4 3 3 3 3 3 3 3 4 7 8 10
Wind_Direction
196 220 234 246 247 268 271 257 260 253 212 225 244 263 243 193 192 193 183 168 162 165 150 139 138 129 130 129 130 136 133 138 137 136 140 142 141 134 116 111 102 74 60 58
212 240 280 291 271 273 276 266 269 303 281 239 251 262 241 187 191 192 181 173 165 153 143 146 142 131 137 137 140 139 137 142 145 144 145 135 123 125 128 113 95 93 75 74
199 335 299 275 278 285 273 268 285 309 303 254 261 272 225 192 192 180 179 169 165 158 154 154 149 144 145 145 148 145 142 142 142 137 121 101 84 71 97 147 138 120 82 86
243 300 287 286 295 317 293 333 322 293 282 264 216 278 244 189 192 190 184 175 171 157 151 154 152 151 148 143 133 128 133 137 140 140 143 149 157 172 183 164 146 138 128 104
302 322 299 283 324 330 304 311 296 271 261 293 238 243 275 173 197 207 191 179 166 157 154 151 148 144 138 133 132 132 133 136 144 146 150 154 157 167 150 133 148 156 154 165
204 192 331 330 315 276 281 285 276 266 269 279 228 199 275 200 197 185 180 174 163 155 145 142 141 136 135 134 136 140 140 147 147 146 152 160 164 172 163 168 179 185 174 173
209 170 152 255 300 279 287 331 17 356 267 249 190 206 250 181 111 141 156 158 152 146 144 144 144 143 139 141 147 149 148 156 156 155 160 161 167 177 188 190 190 188 185 182
271 234 163 199 325 278 271 285 111 249 261 273 258 229 241 111 81 75 106 130 138 144 145 146 149 146 145 149 153 155 156 160 158 156 160 160 162 163 177 184 183 200 203 196
303 258 121 141 329 303 293 260 306 287 287 261 238 213 126 105 104 115 127 140 148 149 148 147 147 147 149 152 157 158 155 147 147 149 149 155 160 161 175 195 195 209 209 191
319 296 194 152 206 232 269 309 319 221 303 291 263 214 201 183 188 179 176 169 162 159 156 152 147 146 143 143 145 144 142 143 142 143 151 149 157 161 173 189 203 206 210 199
286 273 252 201 212 205 193 227 240 260 248 261 294 286 16 147 158 169 183 173 169 170 164 158 152 145 141 139 141 141 143 137 136 141 143 149 169 171 184 206 214 206 206 217
289 272 257 221 109 36 276 245 206 208 268 240 255 270 11 81 110 140 159 164 167 165 161 157 152 145 144 148 148 147 145 140 146 149 151 166 174 182 207 215 215 206 213 224
328 256 299 294 245 203 244 237 234 259 299 253 244 259 219 113 117 144 156 162 158 157 159 160 157 157 159 160 157 154 153 153 151 150 157 167 181 198 215 210 212 212 215 228
316 261 229 240 272 226 242 229 212 203 210 243 236 251 249 216 191 179 170 170 166 168 167 168 169 168 164 161 159 158 160 157 156 160 170 185 197 202 200 197 203 212 219 231
237 260 262 271 281 275 255 244 222 218 223 235 254 266 269 248 205 193 182 176 174 176 177 177 176 169 162 160 162 161 161 159 162 169 182 198 198 197 191 201 211 217 226 236
226 263 282 273 253 257 263 248 236 236 237 248 267 276 269 277 156 181 183 181 188 184 182 179 171 164 164 164 167 165 167 164 162 176 191 189 204 205 202 214 224 231 239 244
216 239 269 271 270 294 264 234 218 221 221 224 242 253 288 298 257 223 206 196 195 182 173 174 173 170 167 168 167 172 171 159 163 182 187 189 206 216 215 217 230 238 241 244
236 232 233 276 306 253 243 124 192 222 240 228 246 273 294 312 358 310 225 200 203 190 173 169 166 161 157 150 148 151 151 158 171 184 195 199 204 218 224 225 235 241 240 242
232 222 232 238 261 273 254 207 176 207 264 230 237 257 280 29 17 310 254 193 183 178 168 167 161 151 149 150 152 149 159 167 177 192 204 208 207 217 229 238 245 245 244 252
254 247 234 229 242 255 251 108 73 87 273 300 228 257 205 106 241 256 129 90 83 101 115 124 122 122 139 157 148 156 177 184 198 202 206 207 208 220 233 240 246 247 242 247
178 205 219 231 244 263 232 141 125 181 249 20 42 38 125 189 215 206 97 89 94 101 104 114 123 142 169 162 154 176 192 207 204 192 204 217 219 226 235 242 245 248 247 252
182 189 202 203 228 252 163 149 190 219 25 19 3 342 247 238 305 53 90 137 138 138 145 149 156 183 188 172 169 192 211 207 185 191 213 227 230 234 234 239 250 246 242 253
205 203 204 206 220 229 170 203 234 13 315 316 314 301 264 248 244 237 230 213 201 190 189 186 187 198 207 193 183 202 215 188 184 203 226 234 235 236 234 234 244 251 246 247
236 241 271 278 272 274 243 243 250 248 252 273 279 274 258 255 250 242 228 226 223 216 206 200 198 209 219 211 203 208 204 187 191 217 234 234 235 244 244 242 238 241 244 248
252 207 255 267 278 293 274 259 263 266 264 269 269 260 251 254 254 245 245 240 233 230 223 210 212 220 225 216 215 212 201 189 204 222 234 239 238 240 246 247 241 244 242 241
232 226 231 251 258 261 275 292 286 271 265 265 268 270 259 241 243 245 245 241 233 224 218 221 226 229 230 220 221 220 207 198 206 226 235 236 239 245 246 258 278 266 260 270